Home   Weather   Matsuyama   Past weeks

Flag for Japan Past Weather in Matsuyama, Japan — Yesterday and Last 2 Weeks

Now
45 °F

Partly sunny.


Feels Like: 45 °F
Forecast: 38 / 50 °F
Wind: 2 mph from North

Location: Matsuyama Airport

Current Time: Jan 18, 2017 at 10:56:12 am

Latest Report: Jan 18, 2017 at 10:00 am


Visibility: N/A

Pressure: 30.42 "Hg

Humidity: 53%

Dew Point: 28 °F

Location of MatsuyamaLocation

Past Weather in Matsuyama — Graph

°F

Matsuyama Temperature Yesterday

Maximum temperature yesterday: 48 °F (at 12:00 pm)
Minimum temperature yesterday: 32 °F (at 7:00 am)
Average temperature yesterday: 43 °F

High & Low Weather Summary for the Past Weeks

 TemperatureHumidityPressure
High57 °F (Jan 3, 10:00 am)100% (Jan 8, 6:45 am)30.42 "Hg (Jan 8, 6:45 am)
Low32 °F (Jan 17, 7:00 am)37% (Jan 13, 5:00 pm)29.68 "Hg (Jan 8, 2:00 pm)
Average47 °F61%30.07 "Hg
* Reported Jan 3 9:00 am — Jan 18 9:00 am, Matsuyama, Weather by CustomWeather, © 2017

Note: Actual official high and low records may vary slightly from our data, if they occured in-between our weather recording intervals... More about our weather records

Advertising

Matsuyama Weather History for the Previous 24 Hours

Scroll right to see more
 ConditionsComfort  
Time TempWeatherWind HumidityBarometerVisibility
9:00 am
Wed, Jan 18
41 °FPartly sunny.9 mph57%30.39 "HgN/A
8:00 am37 °FPartly sunny.13 mph60%30.39 "HgN/A
7:00 am37 °FPassing clouds.7 mph60%30.42 "HgN/A
6:10 am37 °FPassing clouds.6 mph60%30.39 "HgN/A
9:00 pm
Tue, Jan 17
41 °FPartly cloudy.10 mph57%30.42 "HgN/A
8:00 pm43 °FPartly cloudy.9 mph53%30.42 "HgN/A
7:00 pm45 °FPartly cloudy.7 mph46%30.42 "HgN/A
6:00 pm46 °FPartly cloudy.6 mph43%30.39 "HgN/A
5:00 pm48 °FBroken clouds.9 mph40%30.36 "HgN/A
4:00 pm48 °FBroken clouds.15 mph40%30.36 "HgN/A
3:00 pm48 °FPartly sunny.17 mph43%30.33 "HgN/A
2:00 pm48 °FPartly sunny.13 mph40%30.33 "HgN/A
1:00 pm48 °FPartly sunny.15 mph43%30.33 "HgN/A
12:00 pm48 °FScattered clouds.10 mph40%30.36 "HgN/A
11:00 am46 °FScattered clouds.13 mph50%30.39 "HgN/A
10:00 am45 °FScattered clouds.12 mph57%30.42 "HgN/A
Weather by CustomWeather, © 2017

See weather overviewHow to use our weather pages